Regional Weather Roundup
Issued by NWS

Home | Current Version | Previous Version | Text Only | Print | Product List | Glossary Off
Versions: 1 2 3 4 5 6 7 8 9 10 11 12 13 14 15 16 17 18 19 20 21 22 23 24 25 26 27 28 29 30 31 32 33 34 35 36 37 38 39 40 41 42 43 44 45 46 47 48 49 50

000
ASUS43 KBIS 040910
RWRND

NORTH DAKOTA REGIONAL WEATHER ROUNDUP
NATIONAL WEATHER SERVICE BISMARCK ND
300 AM CST WED MAR 04 2015

NOTE: "FAIR" INDICATES FEW OR NO CLOUDS BELOW 12,000 FEET WITH NO
SIGNIFICANT WEATHER AND/OR OBSTRUCTIONS TO VISIBILITY.


NDZ001>003-009>011-017-041000-
NORTHWEST NORTH DAKOTA

CITY           SKY/WX    TMP DP  RH WIND       PRES   REMARKS
WILLISTON      CLEAR     -7 -14  71 NW14      30.17R WCI -28
MINOT          CLEAR     -6 -14  68 W16       30.09R WCI -28
MINOT AFB      FAIR      -8 -14  72 NW17      30.08R WCI -31
$$

NDZ018>021-031>035-040>046-041000-
SOUTHWEST NORTH DAKOTA

CITY           SKY/WX    TMP DP  RH WIND       PRES   REMARKS
BISMARCK       PTCLDY     3  -8  60 NW20G35   30.10R WCI -18
DICKINSON      CLEAR     -1  -8  72 NW14      30.04R WCI -20
GARRISON         N/A     -6 -12  75 NW15      30.08R WCI -27
HETTINGER ARPT CLEAR     -4  -9  79 W8        30.06R WCI -19
$$

NDZ004>008-012>016-024-026-027-054-041000-
NORTHEAST NORTH DAKOTA

CITY           SKY/WX    TMP DP  RH WIND       PRES   REMARKS
GRAND FORKS    CLEAR     -6 -13  71 W8        30.06R WCI -21
GRND FRKS AFB  CLEAR     -4 -14  62 NW10      30.06R WCI -21
DEVILS LAKE    CLEAR     -8 -17  65 W13       30.02R WCI -28
$$

NDZ022-023-025-028>030-036>039-047>053-041000-
SOUTHEAST NORTH DAKOTA

CITY           SKY/WX    TMP DP  RH WIND       PRES   REMARKS
FARGO          CLEAR     -3 -11  68 W9        30.09R WCI -19
JAMESTOWN      LGT SNOW   1  -6  72 NW15      30.05R WCI -18
$$



USA.gov is the U.S. government's official web portal to all federal, state and local government web resources and services.